This demonstration page uses our WeatherBlox Daily Observations layout. Learn more.

Left ArrowRight Arrow

Hourly Observations for July 8, 2021

Temp ( °F °C ) Dew Point ( °F °C ) Humidity (%) Winds ( mph kmh ) Pressure ( in mb ) Visibility ( mi km ) Precip ( " mm )
12:56 am 00:56 Clear 64 17.8 62 16.7 93 93 SE 8 13 29.98 1015 10 16 0.00 0.00
1:56 am 01:56 Clear 63 17.2 61 16.1 93 93 SE 8 13 29.97 1015 9 14 0.00 0.00
2:56 am 02:56 Clear 62 16.7 60 15.6 93 93 SE 7 11 29.97 1015 9 14 0.00 0.00
3:56 am 03:56 Partly Cloudy 61 16.1 59 15 93 93 S 6 9 29.96 1015 9 14 0.00 0.00
4:56 am 04:56 Clear 61 16.1 59 15 93 93 SSE 8 13 29.95 1014 8 13 0.00 0.00
5:56 am 05:56 Clear 61 16.1 60 15.6 97 97 SSE 9 15 29.95 1014 9 14 0.00 0.00
6:56 am 06:56 Sunny 61 16.1 60 15.6 97 97 S 6 9 29.95 1014 8 13 0.00 0.00
7:56 am 07:56 Sunny 64 17.8 61 16.1 90 90 S 13 20 29.94 1014 10 16 0.00 0.00
8:56 am 08:56 Hazy 68 20 63 17.2 84 84 S 14 22 29.97 1015 6 10 0.00 0.00
9:56 am 09:56 Sunny 72 22.2 64 17.8 76 76 S 14 22 29.96 1015 10 16 0.00 0.00
10:56 am 10:56 Sunny 75 23.9 66 18.9 74 74 SSE 15 24 29.93 1014 10 16 0.00 0.00
11:56 am 11:56 Sunny 79 26.1 67 19.4 67 67 SSE 15 24 29.91 1013 10 16 0.00 0.00
12:56 pm 12:56 Sunny 81 27.2 68 20 65 65 SSE 18 30 29.90 1012 10 16 0.00 0.00
1:56 pm 13:56 Sunny 84 28.9 68 20 59 59 SSE 22 35 29.87 1012 10 16 0.00 0.00
2:56 pm 14:56 Sunny 87 30.6 69 20.6 55 55 SSE 24 39 29.84 1011 10 16 0.00 0.00
3:56 pm 15:56 Sunny 89 31.7 68 20 50 50 S 24 39 29.83 1010 10 16 0.00 0.00
4:56 pm 16:56 Sunny 90 32.2 65 18.3 44 44 S 21 33 29.82 1010 10 16 0.00 0.00
5:56 pm 17:56 Sunny 90 32.2 66 18.9 45 45 S 17 28 29.80 1009 10 16 0.00 0.00
6:56 pm 18:56 Sunny 89 31.7 66 18.9 47 47 SSE 13 20 29.79 1009 10 16 0.00 0.00
7:56 pm 19:56 Sunny 85 29.4 66 18.9 53 53 SSE 13 20 29.78 1009 10 16 0.00 0.00
8:56 pm 20:56 Sunny 81 27.2 66 18.9 61 61 S 15 24 29.78 1009 10 16 0.00 0.00
9:56 pm 21:56 Clear 80 26.7 63 17.2 56 56 S 14 22 29.80 1009 10 16 0.00 0.00
10:56 pm 22:56 Clear 77 25 63 17.2 62 62 S 15 24 29.80 1009 10 16 0.00 0.00
11:56 pm 23:56 Clear 76 24.4 63 17.2 64 64 S 15 24 29.80 1009 10 16 0.00 0.00

Powered by AerisWeather